Tracking 19795 objects as of 20-Jul-2019
HD Live streaming from Space Station
objects crossing your sky now

NOAA 16 DEB

Track NOAA 16 DEB now!
10-day predictions


NORAD ID: 41499
Int'l Code: 2000-055LX
Perigee: 817.2 km
Apogee: 877.7 km
Inclination: 98.8 °
Period: 101.7 minutes
Semi major axis: 7218 km
RCS: Unknown
Launch date: September 21, 2000
Source: United States (US)
Launch site: AIR FORCE WESTERN TEST RANGE (AFWTR)

Note: This is SATELLITE DEBRIS
aabbcc
Your satellite tracking list
Your tracking list is empty




NASA's NSSDC Master Catalog

Two Line Element Set (TLE):
1 41499U 00055LX  19200.42431544 +.00000459 +00000-0 +25450-3 0  9993
2 41499 098.7889 270.0626 0041907 008.2538 351.9316 14.15602267173618
Source of the keplerian elements: AFSPC